[[{"header":{"parameterUnit":"m.s-1","parameterCategory":1,"la1":30.2991,"la2":30.254,"lo1":-89.0895,"lo2":-89.0444,"dy":0.0017,"dx":0.0017,"nx":28,"ny":28,"refTime":"2023-07-24T03:00:00:Z","depth":0,"parameterNumber":2,"parameterNumberName":"U-component_of_WINDS"},"data":[0,0,0,0,0,0,0,0,0,0,0,0,0,0,0,0,0,0,0,0,0,0,0,0,0,0,0,0,0,0,0,0,0,0,0,0,0,0,0,0,0,0,0,0,0,0,0,0,0,0,0,0,0,0,0,0,0,0,1.6635,1.6636,0,1.6723,1.6724,1.6725,1.6742,1.6742,1.6741,1.674,1.683,1.6833,1.6836,0,0,0,0,0,0,0,0,0,0,0,0,0,1.6478,1.6481,1.6635,1.6636,1.6637,1.6723,1.6724,1.6726,1.6742,1.6742,1.6741,1.674,1.6829,1.6832,1.6836,0,0,0,0,0,0,0,0,0,0,0,0,0,1.6554,1.6482,1.6635,1.6656,1.6659,1.6723,1.6724,1.6726,1.6743,1.6742,1.6741,1.674,1.6828,1.6832,1.6837,1.6886,0,0,1.685,1.6852,0,0,0,0,0,0,0,0,1.655,1.656,1.6652,1.6655,1.6658,1.6721,1.6702,1.6779,1.6743,1.6711,1.674,1.6739,1.6794,1.6802,1.682,1.689,1.6894,1.6851,1.6854,1.6856,1.6857,0,0,0,0,0,0,0,1.6545,1.6556,1.667,1.6653,1.6657,1.666,1.667,1.6717,1.6757,1.6713,1.6715,1.6725,1.6796,1.6816,1.6823,1.6895,1.6851,1.6855,1.6858,1.6859,1.7006,1.7007,0,0,0,0,0,0,1.6536,1.6552,1.6667,1.6672,1.66,1.6664,1.6675,1.6702,1.6757,1.6764,1.6726,1.6726,1.6809,1.6817,1.6826,1.6885,1.6856,1.686,1.6862,1.7005,1.7007,1.7008,0,0,0,0,0,0,1.6532,1.6546,1.6663,1.6613,1.6628,1.6668,1.6698,1.6704,1.6724,1.6766,1.6773,1.6739,1.6808,1.6819,1.687,1.6888,1.6862,1.6866,1.7004,1.7006,1.7007,1.7005,0,0,0,0,0,0,1.6528,1.6545,1.6564,1.6613,1.663,1.6707,1.6699,1.6706,1.6732,1.6732,1.6781,1.6788,1.6808,1.6863,1.6875,1.6894,1.687,1.7002,1.7005,1.7007,1.7003,1.7006,1.7009,0,0,0,0,0,1.6522,1.656,1.6565,1.6579,1.6656,1.6708,1.6718,1.6741,1.6733,1.6753,1.678,1.6786,1.6885,1.6868,1.6881,1.6902,1.7001,1.7004,1.7006,1.7002,1.7006,1.7009,0,0,0,0,0,0,1.6513,1.6567,1.6573,1.6629,1.6663,1.6711,1.6736,1.6744,1.6782,1.6781,1.6808,1.6818,1.6867,1.689,1.6871,1.6952,1.6942,1.6948,1.6935,1.6938,1.6941,1.6934,1.6873,0,0,0,0,0,1.6518,1.6556,1.6601,1.6645,1.6663,1.6696,1.672,1.6735,1.6772,1.6787,1.6817,1.6853,1.6891,1.6916,1.6955,1.7007,1.7017,1.7028,1.7031,1.7032,1.7036,1.7064,1.7069,1.7017,1.7016,1.7016,0,0,1.6527,1.6562,1.6584,1.6644,1.6673,1.6711,1.6709,1.675,1.6777,1.6793,1.6842,1.6865,1.6907,1.6958,1.6982,1.6978,1.7053,1.7036,1.7037,1.704,1.7067,1.7072,1.7076,1.7018,1.7018,1.7018,0,0,1.6564,1.6595,1.6634,1.6662,1.6706,1.6728,1.6737,1.6783,1.6799,1.6849,1.686,1.6894,1.6961,1.6989,1.7012,1.7057,1.7063,1.7069,1.7082,1.7108,1.7112,1.7116,1.713,1.7135,1.7073,1.7073,1.7073,0,1.657,1.6628,1.6653,1.6693,1.6718,1.6733,1.6772,1.6799,1.6852,1.6869,1.6864,1.6947,1.6976,1.7033,1.7043,1.7062,1.7073,1.7063,1.711,1.7114,1.7118,1.7132,1.7137,1.7073,1.7073,1.7073,1.7073,0,1.6633,1.6673,1.6699,1.675,1.6779,1.6818,1.6847,1.6873,1.6884,1.6906,1.6956,1.6991,1.7035,1.705,1.7063,1.7108,1.7104,1.7105,1.7096,1.7122,1.7136,1.7141,1.7073,1.7073,1.7073,1.7073,0,0,1.6667,1.6729,1.6739,1.6761,1.6809,1.684,1.6879,1.6923,1.6943,1.6979,1.7012,1.7067,1.7067,1.7093,1.7108,1.7132,1.7162,1.7129,1.713,1.7132,1.7213,1.7211,1.7217,1.7167,1.7169,1.717,1.7209,0,1.6708,1.6778,1.68,1.6859,1.6895,1.6909,1.6943,1.6976,1.6997,1.703,1.7053,1.7091,1.7089,1.7105,1.7128,1.7154,1.7179,1.7151,1.7196,1.7198,1.7184,1.7224,1.7224,1.7259,1.7214,1.7215,1.7216,0,1.6765,1.6801,1.6863,1.6905,1.6921,1.6951,1.6992,1.7024,1.706,1.7074,1.7102,1.7115,1.7155,1.7144,1.7199,1.718,1.7199,1.7214,1.7216,1.722,1.7208,1.7228,1.7271,1.7275,1.7225,1.7224,1.7223,0,1.6781,1.6846,1.689,1.6909,1.696,1.698,1.7002,1.7038,1.7062,1.7097,1.7112,1.7152,1.7173,1.7203,1.7226,1.7216,1.7278,1.7269,1.7289,1.7288,1.73,1.7299,1.7345,1.7315,1.7315,1.7315,1.7315,0,1.6824,1.686,1.6898,1.6925,1.6966,1.6991,1.7031,1.7053,1.7085,1.7116,1.7131,1.716,1.7189,1.7221,1.7239,1.728,1.7291,1.7302,1.7306,1.73,1.7298,1.7312,1.731,1.7317,1.7316,1.7316,1.7316,0,1.6848,1.6875,1.6924,1.6968,1.6979,1.7008,1.7044,1.7071,1.7092,1.7131,1.7142,1.7175,1.7214,1.724,1.7289,1.7301,1.7345,1.735,1.7333,1.7335,1.7352,1.7349,1.7408,1.7416,1.7382,1.7382,1.7382,0,1.6873,1.6901,1.6947,1.6969,1.6991,1.7027,1.7051,1.7076,1.71,1.7143,1.7164,1.7203,1.7236,1.7297,1.7325,1.7363,1.7367,1.7385,1.7373,1.7365,1.7365,1.7363,1.7365,1.7386,1.7387,1.7387,1.7387,0,1.6913,1.6925,1.6959,1.6998,1.7026,1.7058,1.709,1.7107,1.7137,1.7164,1.7203,1.7228,1.7278,1.7317,1.7357,1.7378,1.7387,1.7391,1.7397,1.739,1.7379,1.7383,1.7336,1.7389,1.7389,1.7389,1.7389,1.7389,1.6938,1.6963,1.6999,1.7036,1.7062,1.7091,1.7118,1.7142,1.7175,1.7218,1.723,1.7271,1.7305,1.7359,1.7382,1.7413,1.7411,1.7421,1.7423,1.7424,1.7423,1.7374,1.7421,1.7421,1.7421,1.7421,1.7421,0,1.6977,1.7001,1.7035,1.7078,1.7107,1.7114,1.7148,1.7172,1.7208,1.7239,1.727,1.7315,1.7352,1.7382,1.742,1.7439,1.7444,1.7448,1.7446,1.7451,1.7424,1.7414,1.7444,1.7444,1.7444,1.7444,1.7444,1.7444,1.7001,1.7044,1.7059,1.7114,1.7137,1.7177,1.7196,1.7222,1.7247,1.7295,1.7326,1.7346,1.7376,1.7416,1.745,1.7458,1.7471,1.7473,1.7482,1.7456,1.7453,1.7451,1.7441,1.7476,1.7476,1.7507,1.7507,1.7507]},{"header":{"parameterUnit":"m.s-1","parameterCategory":1,"la1":30.2991,"la2":30.254,"lo1":-89.0895,"lo2":-89.0444,"dy":0.0017,"dx":0.0017,"nx":28,"ny":28,"refTime":"2023-07-24T03:00:00:Z","depth":0,"parameterNumber":3,"parameterNumberName":"V-component_of_WINDS"},"data":[0,0,0,0,0,0,0,0,0,0,0,0,0,0,0,0,0,0,0,0,0,0,0,0,0,0,0,0,0,0,0,0,0,0,0,0,0,0,0,0,0,0,0,0,0,0,0,0,0,0,0,0,0,0,0,0,0,0,2.7071,2.7071,0,2.7064,2.7064,2.7064,2.701,2.7009,2.7008,2.7006,2.6999,2.7,2.7001,0,0,0,0,0,0,0,0,0,0,0,0,0,2.7037,2.7037,2.7071,2.7071,2.7071,2.7064,2.7064,2.7064,2.701,2.7009,2.7007,2.7006,2.6998,2.6999,2.7001,0,0,0,0,0,0,0,0,0,0,0,0,0,2.7043,2.7038,2.7071,2.7044,2.7041,2.7064,2.7064,2.7064,2.7011,2.7009,2.7007,2.7005,2.6998,2.6999,2.7001,2.705,0,0,2.7006,2.7006,0,0,0,0,0,0,0,0,2.7043,2.7044,2.7048,2.7046,2.7043,2.7036,2.7049,2.7059,2.7011,2.7022,2.7006,2.7004,2.7013,2.7013,2.7016,2.705,2.7049,2.7006,2.7007,2.7007,2.7008,0,0,0,0,0,0,0,2.7042,2.7044,2.7069,2.7048,2.7045,2.7031,2.703,2.7051,2.7029,2.7021,2.7017,2.7017,2.7011,2.7015,2.7015,2.7049,2.7006,2.7007,2.7008,2.7009,2.712,2.7122,0,0,0,0,0,0,2.7046,2.7044,2.7069,2.7068,2.7038,2.7033,2.7032,2.704,2.7028,2.7025,2.7019,2.7015,2.7013,2.7014,2.7015,2.7069,2.7007,2.7009,2.701,2.7118,2.7121,2.7123,0,0,0,0,0,0,2.7045,2.7049,2.7069,2.7055,2.7057,2.7036,2.7046,2.7041,2.7045,2.7027,2.7022,2.7027,2.7011,2.7013,2.7041,2.7069,2.7009,2.7011,2.7116,2.7119,2.7122,2.7181,0,0,0,0,0,0,2.7044,2.7049,2.7068,2.7056,2.7058,2.7096,2.7048,2.7042,2.7048,2.7042,2.7033,2.7029,2.701,2.7039,2.7043,2.707,2.7012,2.7113,2.7117,2.7121,2.7176,2.7186,2.7193,0,0,0,0,0,2.7043,2.7085,2.7069,2.7072,2.7081,2.7098,2.7099,2.7076,2.705,2.7068,2.7056,2.703,2.7065,2.7042,2.7046,2.7074,2.7111,2.7116,2.712,2.7172,2.7184,2.7193,0,0,0,0,0,0,2.7101,2.7083,2.7065,2.7104,2.7103,2.7089,2.7112,2.7089,2.7095,2.7089,2.706,2.7059,2.7091,2.7085,2.706,2.7119,2.7083,2.7089,2.7122,2.7132,2.7141,2.7141,2.7013,0,0,0,0,0,2.7119,2.7134,2.7117,2.7154,2.7154,2.7133,2.714,2.7122,2.7119,2.7118,2.7108,2.7107,2.7117,2.7125,2.7133,2.7175,2.7171,2.7196,2.7205,2.7212,2.7217,2.7236,2.7246,2.7138,2.7138,2.7138,0,0,2.7155,2.7147,2.7158,2.7165,2.7162,2.7178,2.7133,2.7152,2.7163,2.7121,2.7147,2.714,2.7135,2.717,2.7185,2.7167,2.7246,2.7218,2.7224,2.7224,2.7242,2.7252,2.7261,2.7141,2.714,2.714,0,0,2.7228,2.7224,2.7253,2.725,2.7246,2.7231,2.7238,2.7227,2.722,2.7246,2.7213,2.7226,2.7245,2.7243,2.7244,2.7315,2.7289,2.7318,2.7363,2.7382,2.739,2.7398,2.7421,2.743,2.7323,2.7323,2.7324,0,2.7273,2.7296,2.727,2.7291,2.7294,2.7256,2.7284,2.7283,2.7282,2.7284,2.7263,2.7285,2.728,2.7313,2.7329,2.7333,2.7338,2.7319,2.7391,2.7398,2.7405,2.7427,2.7436,2.7327,2.7326,2.7326,2.7326,0,2.735,2.7367,2.739,2.7389,2.7395,2.7419,2.7396,2.7405,2.7386,2.7374,2.7399,2.7391,2.7397,2.7403,2.7386,2.7433,2.7421,2.7397,2.7359,2.7419,2.7439,2.7447,2.7332,2.7331,2.733,2.7329,0,0,2.746,2.7443,2.7452,2.745,2.7442,2.7453,2.7475,2.748,2.7487,2.7488,2.7504,2.752,2.7497,2.7498,2.748,2.7497,2.755,2.747,2.7469,2.7483,2.7599,2.7617,2.7627,2.7534,2.7536,2.7537,2.7599,0,2.7529,2.7565,2.7542,2.7581,2.7595,2.7558,2.7577,2.7573,2.7562,2.7571,2.7558,2.7569,2.7538,2.7538,2.7554,2.7541,2.7573,2.7536,2.7547,2.7548,2.7548,2.7638,2.7656,2.7716,2.7607,2.7608,2.7609,0,2.7614,2.7617,2.7657,2.7644,2.7649,2.7666,2.7667,2.7677,2.7671,2.7662,2.7663,2.7639,2.7658,2.7623,2.7647,2.7623,2.7626,2.762,2.7622,2.7621,2.7581,2.7637,2.7734,2.7743,2.7621,2.762,2.7619,0,2.7688,2.7702,2.7727,2.7727,2.7712,2.7725,2.7719,2.7712,2.7715,2.7717,2.7718,2.7722,2.7724,2.7727,2.7705,2.7681,2.7732,2.7695,2.7723,2.7723,2.7734,2.7734,2.7831,2.7739,2.7739,2.7739,2.7739,0,2.7766,2.7792,2.7759,2.7775,2.7802,2.7775,2.7802,2.7793,2.7786,2.7798,2.7767,2.7779,2.775,2.7759,2.7741,2.7763,2.7765,2.7756,2.7751,2.7758,2.7759,2.7759,2.7754,2.7741,2.7741,2.774,2.774,0,2.7852,2.7832,2.7857,2.7841,2.7837,2.7858,2.7843,2.7856,2.7842,2.7858,2.786,2.7838,2.7846,2.7824,2.783,2.7818,2.7849,2.7838,2.7851,2.7847,2.7875,2.7872,2.7975,2.7986,2.7889,2.789,2.7891,0,2.7903,2.7922,2.7907,2.7912,2.7908,2.7919,2.7922,2.7895,2.79,2.7893,2.7907,2.7912,2.7915,2.793,2.7914,2.7918,2.7905,2.7941,2.7906,2.7911,2.7904,2.7902,2.7903,2.7948,2.795,2.795,2.7951,0,2.7994,2.7982,2.7988,2.799,2.7995,2.7995,2.7993,2.8,2.7971,2.7977,2.7985,2.7987,2.7992,2.7997,2.7997,2.799,2.7966,2.7963,2.7969,2.7976,2.7981,2.7976,2.7869,2.796,2.7959,2.7959,2.7958,2.7958,2.8063,2.8077,2.8068,2.8075,2.807,2.8069,2.8079,2.8066,2.8072,2.8073,2.8057,2.8068,2.806,2.8057,2.8052,2.806,2.8043,2.8053,2.8055,2.8057,2.8061,2.7981,2.806,2.806,2.8059,2.8059,2.8059,0,2.815,2.8142,2.8149,2.8147,2.8152,2.8128,2.8124,2.8129,2.8139,2.8134,2.8137,2.8145,2.8149,2.8133,2.8135,2.8144,2.8133,2.8145,2.8144,2.8142,2.8077,2.807,2.8154,2.8154,2.8154,2.8154,2.8154,2.8154,2.8196,2.8218,2.8205,2.8224,2.8215,2.8225,2.8225,2.8222,2.8218,2.8228,2.8231,2.8221,2.821,2.8211,2.8213,2.8208,2.821,2.8226,2.8217,2.8156,2.8147,2.8138,2.8132,2.8227,2.8227,2.8281,2.8282,2.8282]}]]